Home > Weather > Milan > Past weeks

Flag for Italy Weather for the Past 2 Weeks in Milan, Italy

Now
55 °F

Passing clouds.


Feels Like: 53 °F
Forecast: 32 / 48 °F
Wind: 9 mph from Northwest

Location: Milan / Linate

Current Time: Feb 10, 2016 at 2:37:03 PM

Latest Report: Feb 10, 2016 at 1:50 PM


Visibility: N/A

Pressure: 29.50 "Hg

Humidity: 19%

Dew point: 14 °F

Location of MilanLocation

Historic Weather in Milan — Graph

°F

Milan Temperature Yesterday

Maximum temperature yesterday: 48 °F (at 9:50 AM)
Minimum temperature yesterday: 45 °F (at 3:20 AM)
Average temperature yesterday: 47 °F

High & Low Weather Summary for the Past Weeks

 TemperatureHumidityPressure
High59 °F (Jan 26, 1:50 PM)100% (Jan 26, 9:50 PM)30.48 "Hg (Jan 26, 9:50 PM)
Low34 °F (Jan 27, 4:50 AM)21% (Feb 10, 12:20 PM)29.33 "Hg (Feb 10, 12:50 AM)
Average46 °F82%30.15 "Hg
* Reported Jan 26 1:20 PM — Feb 10 1:20 PM, Milan, Weather by CustomWeather, © 2016

Note: Actual official high and low records may vary slightly from our data, if they occured in-between our weather recording intervals... More about our weather records

Advertising

Milan Weather History for the Previous 24 Hours

 ConditionsComfort  
Time TempWeatherWind HumidityBarometerVisibility
1:20 PM
Wed, Feb 10
54 °FPassing clouds.10 mph22%29.50 "HgN/A
12:50 PM54 °FPassing clouds.12 mph21%29.50 "HgN/A
12:20 PM54 °FPassing clouds.12 mph21%29.50 "HgN/A
11:50 AM54 °FPassing clouds.8 mph30%29.50 "HgN/A
11:20 AM52 °FPassing clouds.9 mph32%29.47 "HgN/A
10:50 AM52 °FPassing clouds.8 mph32%29.47 "HgN/A
10:20 AM50 °FPassing clouds.8 mph35%29.47 "HgN/A
9:50 AM50 °FPassing clouds.7 mph30%29.45 "HgN/A
9:20 AM48 °FPassing clouds.6 mph34%29.45 "HgN/A
8:50 AM46 °FPassing clouds.7 mph34%29.42 "HgN/A
8:20 AM43 °FSunny.7 mph42%29.42 "Hg10 mi
7:50 AM45 °FPassing clouds.7 mph37%29.39 "HgN/A
7:20 AM46 °FPassing clouds.7 mph29%29.39 "HgN/A
6:50 AM46 °FPassing clouds.9 mph29%29.36 "HgN/A
6:20 AM46 °FPassing clouds.12 mph29%29.36 "HgN/A
5:50 AM46 °FPassing clouds.9 mph37%29.36 "HgN/A
5:20 AM45 °FPassing clouds.8 mph49%29.33 "HgN/A
4:50 AM45 °FPassing clouds.9 mph66%29.33 "HgN/A
4:20 AM43 °FPassing clouds.9 mph93%29.33 "HgN/A
3:50 AM45 °FPassing clouds.8 mph87%29.33 "HgN/A
2:50 AM45 °FPassing clouds.5 mph93%29.33 "Hg4 mi
2:20 AM45 °FPassing clouds.8 mph93%29.33 "Hg4 mi
1:50 AM45 °FPassing clouds.8 mph100%29.33 "Hg4 mi
1:20 AM45 °FFog.7 mph100%29.33 "Hg3 mi
12:50 AM46 °FPassing clouds.8 mph93%29.33 "Hg3 mi
12:20 AM46 °FPassing clouds.3 mph93%29.36 "Hg5 mi
11:50 PM
Tue, Feb 9
45 °FPassing clouds.2 mph100%29.39 "HgN/A
10:50 PM45 °FLight rain. Passing clouds.2 mph93%29.42 "HgN/A
10:20 PM45 °FLight rain. Fog.6 mph100%29.42 "HgN/A
9:50 PM48 °FLight rain. Fog.5 mph94%29.45 "Hg3 mi
9:20 PM48 °FRain. Fog.3 mph94%29.45 "Hg2 mi
8:50 PM48 °FRain. Fog.6 mph94%29.45 "Hg2 mi
8:20 PM48 °FHeavy rain. Fog.7 mph94%29.47 "Hg2 mi
7:50 PM48 °FHeavy rain. Fog.13 mph94%29.47 "Hg2 mi
7:20 PM46 °FRain. Fog.13 mph100%29.50 "Hg2 mi
6:50 PM46 °FRain. Fog.14 mph100%29.50 "Hg2 mi
6:20 PM46 °FRain. Fog.14 mph100%29.53 "Hg2 mi
5:50 PM46 °FRain. Fog.12 mph93%29.56 "Hg1 mi
4:50 PM46 °FRain. Fog.2 mph93%29.62 "Hg1 mi
4:20 PM46 °FRain. Fog.7 mph93%29.65 "Hg1 mi
3:50 PM46 °FRain. Fog.7 mph93%29.68 "Hg1 mi
3:20 PM46 °FRain. Fog.7 mph93%29.71 "Hg1 mi
2:50 PM48 °FDrizzle. Fog.7 mph87%29.74 "Hg2 mi
2:20 PM48 °FDrizzle. Fog.9 mph87%29.74 "Hg2 mi
Weather by CustomWeather, © 2016

See weather overviewHow to use our weather pages